TimeEST,TemperatureF,Dew PointF,Humidity,Sea Level PressureIn,VisibilityMPH,Wind Direction,Wind SpeedMPH,Gust SpeedMPH,PrecipitationIn,Events,Conditions,WindDirDegrees,DateUTC
12:53 AM,68.0,64.9,90,30.09,10.0,ESE,6.9,-,N/A,,Clear,120,2013-01-30 05:53:00
1:53 AM,68.0,64.0,87,30.08,10.0,ESE,9.2,-,N/A,,Clear,120,2013-01-30 06:53:00
2:53 AM,68.0,64.0,87,30.06,10.0,SE,11.5,-,N/A,,Clear,130,2013-01-30 07:53:00
3:53 AM,66.0,64.0,93,30.06,10.0,SE,10.4,-,N/A,,Clear,130,2013-01-30 08:53:00
4:53 AM,66.0,63.0,90,30.03,10.0,SE,10.4,-,N/A,,Clear,130,2013-01-30 09:53:00
5:53 AM,64.9,63.0,93,30.04,10.0,SE,9.2,-,N/A,,Clear,130,2013-01-30 10:53:00
6:53 AM,64.9,62.1,90,30.04,10.0,SE,9.2,-,N/A,,Clear,140,2013-01-30 11:53:00
7:53 AM,64.9,63.0,93,30.04,10.0,SE,10.4,-,N/A,,Clear,140,2013-01-30 12:53:00
8:53 AM,70.0,64.9,84,30.03,10.0,SSE,16.1,21.9,N/A,,Clear,150,2013-01-30 13:53:00
9:53 AM,75.0,64.9,71,30.01,10.0,SSE,18.4,28.8,N/A,,Clear,160,2013-01-30 14:53:00
10:53 AM,78.1,63.0,60,30.00,10.0,South,23.0,31.1,N/A,,Clear,170,2013-01-30 15:53:00
11:53 AM,79.0,63.0,58,29.98,10.0,South,25.3,38.0,N/A,,Clear,180,2013-01-30 16:53:00
12:53 PM,79.0,64.9,62,29.97,10.0,South,21.9,31.1,N/A,,Clear,190,2013-01-30 17:53:00
1:53 PM,79.0,64.9,62,29.98,10.0,South,20.7,29.9,N/A,,Clear,180,2013-01-30 18:53:00
2:53 PM,78.1,66.0,66,29.96,10.0,South,24.2,32.2,N/A,,Clear,180,2013-01-30 19:53:00
3:53 PM,78.1,64.9,64,29.95,10.0,South,25.3,31.1,N/A,,Clear,170,2013-01-30 20:53:00
4:53 PM,75.9,64.0,67,29.94,10.0,South,20.7,32.2,N/A,,Clear,190,2013-01-30 21:53:00
5:53 PM,75.0,64.0,69,29.93,10.0,South,20.7,28.8,N/A,,Clear,180,2013-01-30 22:53:00
6:53 PM,73.0,64.0,73,29.93,10.0,South,17.3,25.3,N/A,,Clear,180,2013-01-30 23:53:00
7:53 PM,73.0,64.9,76,29.93,10.0,South,17.3,-,N/A,,Clear,180,2013-01-31 00:53:00
8:53 PM,73.0,64.9,76,29.93,10.0,South,19.6,25.3,N/A,,Clear,170,2013-01-31 01:53:00
9:53 PM,72.0,66.0,81,29.94,10.0,South,18.4,25.3,N/A,,Clear,180,2013-01-31 02:53:00
10:53 PM,71.1,66.9,87,29.94,10.0,South,18.4,26.5,N/A,,Clear,180,2013-01-31 03:53:00
11:53 PM,71.1,66.9,87,29.94,10.0,South,16.1,23.0,N/A,,Mostly Cloudy,180,2013-01-31 04:53:00